Regional Weather Roundup
Issued by NWS Cleveland, OH

Home | Current Version | Previous Version | Graphics & Text | Print | Product List | Glossary On
Versions: 1 2 3 4 5 6 7 8 9 10 11 12 13 14 15 16 17 18 19 20 21 22 23 24 25 26 27 28 29 30 31 32 33 34 35 36 37 38 39 40 41 42 43 44 45 46 47 48 49 50
105
ASUS41 KCLE 242302
RWRCLE
OHIO REGIONAL WEATHER ROUNDUP
NATIONAL WEATHER SERVICE CLEVELAND, OH
700 PM EDT WED AUG 24 2016

NOTE: "FAIR" INDICATES FEW OR NO CLOUDS BELOW 12,000 FEET WITH NO
SIGNIFICANT WEATHER AND/OR OBSTRUCTIONS TO VISIBILITY.

OHZ001>008-015>018-024>027-034-035-043-044-250000-
   NORTHWEST OHIO

CITY           SKY/WX    TMP DP  RH WIND       PRES   REMARKS
DEFIANCE         N/A     78  73  84 SW8       29.98F
FINDLAY        LGT RAIN  80  70  71 S14       30.01F
TOLEDO EXPRESS LGT RAIN  78  74  87 S9        29.98F
TOLEDO EXEC    PTSUNNY   81  73  76 S10       29.99F
LIMA           CLOUDY    78  74  87 S13       30.02F
$$

OHZ009>014-019>023-028>033-038-089-250000-
   NORTHEAST OHIO

CITY           SKY/WX    TMP DP  RH WIND       PRES   REMARKS
CLE-HOPKINS    PTSUNNY   84  65  52 S12       30.06F
CLE-LAKEFRONT  CLOUDY    85  65  51 S17G23    30.02F
CUY CO. ARPT   PTSUNNY   84  70  61 S16       30.06F
LORAIN-ELYRIA  CLOUDY    82  67  60 SW14      30.04F
ASHTABULA      MOSUNNY   80  65  59 S8        30.07F
AKRON-CANTON   PTSUNNY   81  65  58 S10       30.10F
WOOSTER        MOSUNNY   79  67  66 S9        30.09F
MANSFIELD      MOSUNNY   79  69  71 S15G23    30.08F
YOUNGSTOWN     PTSUNNY   80  64  58 SW9       30.10F
$$

OHZ042-051>053-060>062-070>072-077>081-250000-
  SOUTHWEST OHIO

CITY           SKY/WX    TMP DP  RH WIND       PRES   REMARKS
CINC-COVINGTON CLOUDY    83  73  72 S7        30.08F
CINC-LUNKEN    CLOUDY    81  74  79 S6        30.06F
HAMILTON       CLOUDY    83  71  67 VRB5      30.06F
DAYTON         LGT RAIN  78  74  87 S9        30.06F
WRIGHT-PAT AFB LGT RAIN  79  75  86 S12       30.04F
DAYTON GENERAL CLOUDY    81  71  71 S12       30.05F
WILMINGTON     CLOUDY    79  73  82 S9        30.08F
$$

OHZ036-037-039>041-045>050-054>059-063>069-073>076-082>088-250000-
  CENTRAL AND SOUTHEAST OHIO

CITY           SKY/WX    TMP DP  RH WIND       PRES   REMARKS
COLUMBUS       CLOUDY    80  70  71 S9        30.08F
OSU AIRPORT    CLOUDY    81  71  71 S10       30.07F
BOLTON FIELD   PTSUNNY   79  73  83 S7        30.09F
RICKENBACK AFB CLOUDY    79  71  76 S7        30.08F
NEWARK         NOT AVBL
MARION         PTSUNNY   79  70  74 S14       30.07F
LANCASTER      CLOUDY    80  71  74 S8        30.10F
ZANESVILLE     PTSUNNY   80  69  69 S8        30.11F
NEW PHILLY     CLOUDY    84  66  54 S6        30.11F
$$




USA.gov is the U.S. government's official web portal to all federal, state and local government web resources and services.